This is the latest recevied weather packets stored in our database for station/object KB9ZI. If no packets are shown the sender has not sent any weather packets the latest 10 day(s).
| Time | Temp. | Humidity | Pressure | Rain* | Wind** | Luminosity | Snow |
|---|---|---|---|---|---|---|---|
| 1777488402 | 11.67° C | 47% | 1017.7 hPa | 0 mm | - | - | - |
| 1777488285 | 11.67° C | 46% | 1017.7 hPa | 0 mm | - | - | - |
| 1777488162 | 11.67° C | 47% | 1017.7 hPa | 0 mm | - | - | - |
| 1777488044 | 11.67° C | 48% | 1017.6 hPa | 0 mm | - | - | - |
| 1777487928 | 11.67° C | 48% | 1017.7 hPa | 0 mm | - | - | - |
| 1777487863 | 11.67° C | 48% | 1017.8 hPa | 0 mm | - | - | - |
| 1777487685 | 11.67° C | 51% | 1017.7 hPa | 0 mm | - | - | - |
| 1777487564 | 11.11° C | 48% | 1017.8 hPa | 0 mm | - | - | - |
| 1777487442 | 11.67° C | 46% | 1017.8 hPa | 0 mm | - | - | - |
| 1777487328 | 11.67° C | 50% | 1017.8 hPa | 0 mm | - | - | - |
| 1777487205 | 11.67° C | 47% | 1017.8 hPa | 0 mm | - | - | - |
| 1777487084 | 11.67° C | 52% | 1017.9 hPa | 0 mm | - | - | - |
| 1777486962 | 11.11° C | 46% | 1017.8 hPa | 0 mm | - | - | - |
| 1777486908 | 11.11° C | 46% | 1017.8 hPa | 0 mm | - | - | - |
| 1777486730 | 11.11° C | 46% | 1017.9 hPa | 0 mm | - | - | - |
| 1777486603 | 11.67° C | 48% | 1017.8 hPa | 0 mm | - | - | - |
| 1777486484 | 11.67° C | 48% | 1017.7 hPa | 0 mm | - | - | - |
| 1777486363 | 11.67° C | 48% | 1017.9 hPa | 0 mm | - | - | - |
| 1777486243 | 11.67° C | 48% | 1017.8 hPa | 0 mm | - | - | - |
| 1777486131 | 11.67° C | 49% | 1017.8 hPa | 0 mm | - | - | - |
| 1777486002 | 12.22° C | 49% | 1017.9 hPa | 0 mm | - | - | - |
| 1777485886 | 12.22° C | 49% | 1017.9 hPa | 0 mm | - | - | - |
| 1777485762 | 12.22° C | 47% | 1017.8 hPa | 0 mm | - | - | - |
| 1777485642 | 12.22° C | 45% | 1017.9 hPa | 0 mm | - | - | - |
| 1777485528 | 13.33° C | 50% | 1018 hPa | 0 mm | - | - | - |
* Rain latest hour (hover to see other rain measurements)
** Current wind speed in m/s (hover to see current wind gust speed)